Time,TemperatureF,DewpointF,PressureIn,WindDirection,WindDirectionDegrees,WindSpeedMPH,WindSpeedGustMPH,Humidity,HourlyPrecipIn,Conditions,Clouds,dailyrainin,SoftwareType,DateUTC
2013-07-30 00:23:00,59.0,58.0,-100.00,North,0,0.0,1.0,96,0.00,,,-99.99,,2013-07-30 04:23:00,
2013-07-30 00:33:00,59.0,58.0,-100.00,NNE,15,0.0,1.0,96,0.00,,,-99.99,,2013-07-30 04:33:00,
2013-07-30 00:43:00,59.0,59.0,-100.00,NW,320,1.0,1.0,97,0.00,,,-99.99,,2013-07-30 04:43:00,
2013-07-30 01:23:00,59.0,58.0,-100.00,North,10,0.0,1.0,97,0.00,,,-99.99,,2013-07-30 05:23:00,
2013-07-30 02:33:00,59.0,58.0,-100.00,North,350,1.0,2.0,97,0.00,,,-99.99,,2013-07-30 06:33:00,
2013-07-30 02:53:00,58.0,58.0,-100.00,NNW,340,2.0,2.0,98,0.00,,,-99.99,,2013-07-30 06:53:00,
2013-07-30 03:03:00,58.0,58.0,-100.00,NNW,345,1.0,2.0,98,0.00,,,-99.99,,2013-07-30 07:03:00,
2013-07-30 04:23:00,56.0,56.0,-100.00,North,355,1.0,4.0,98,0.00,,,-99.99,,2013-07-30 08:23:00,
2013-07-30 05:03:00,55.0,54.0,-100.00,NNW,345,2.0,4.0,98,0.00,,,-99.99,,2013-07-30 09:03:00,
2013-07-30 05:23:00,55.0,54.0,-100.00,North,0,1.0,3.0,98,0.00,,,-99.99,,2013-07-30 09:23:00,
2013-07-30 05:33:00,54.0,54.0,-100.00,NNW,340,2.0,2.0,98,0.00,,,-99.99,,2013-07-30 09:33:00,
2013-07-30 05:43:00,54.0,54.0,-100.00,NW,325,2.0,3.0,98,0.00,,,-99.99,,2013-07-30 09:43:00,
2013-07-30 06:03:00,54.0,54.0,-100.00,NNW,340,3.0,5.0,98,0.00,,,-99.99,,2013-07-30 10:03:00,
2013-07-30 06:52:00,56.0,55.0,-100.00,NNW,340,4.0,6.0,98,0.00,,,-99.99,,2013-07-30 10:52:00,
2013-07-30 07:43:00,60.0,59.0,-100.00,NNW,345,3.0,6.0,97,0.00,,,-99.99,,2013-07-30 11:43:00,
2013-07-30 07:53:00,61.0,60.0,-100.00,NNW,345,4.0,6.0,96,0.00,,,-99.99,,2013-07-30 11:53:00,
2013-07-30 08:12:00,63.0,59.0,-100.00,NNW,330,3.0,7.0,87,0.00,,,-99.99,,2013-07-30 12:12:00,
2013-07-30 09:12:00,68.0,59.0,-100.00,North,350,4.0,10.0,72,0.00,,,-99.99,,2013-07-30 13:12:00,
2013-07-30 09:22:00,69.0,59.0,-100.00,North,350,4.0,11.0,72,0.00,,,-99.99,,2013-07-30 13:22:00,
2013-07-30 10:12:00,70.0,58.0,-100.00,NNW,340,6.0,12.0,65,0.00,,,-99.99,,2013-07-30 14:12:00,
2013-07-30 10:22:00,70.0,56.0,-100.00,NNW,340,9.0,15.0,61,0.00,,,-99.99,,2013-07-30 14:22:00,
2013-07-30 10:33:00,71.0,59.0,-100.00,NNW,345,4.0,15.0,65,0.00,,,-99.99,,2013-07-30 14:33:00,
2013-07-30 10:43:00,72.0,58.0,-100.00,NNW,340,4.0,10.0,62,0.00,,,-99.99,,2013-07-30 14:43:00,
2013-07-30 11:12:00,72.0,56.0,-100.00,NW,325,3.0,12.0,58,0.00,,,-99.99,,2013-07-30 15:12:00,
2013-07-30 11:23:00,72.0,54.0,-100.00,North,355,8.0,13.0,53,0.00,,,-99.99,,2013-07-30 15:23:00,
2013-07-30 12:02:00,72.0,52.0,-100.00,NNW,340,7.0,12.0,48,0.00,,,-99.99,,2013-07-30 16:02:00,
2013-07-30 12:12:00,73.0,53.0,-100.00,NW,315,3.0,9.0,48,0.00,,,-99.99,,2013-07-30 16:12:00,
2013-07-30 12:23:00,74.0,54.0,-100.00,NNW,340,4.0,12.0,50,0.00,,,-99.99,,2013-07-30 16:23:00,
2013-07-30 13:12:00,73.0,55.0,-100.00,NNW,345,4.0,10.0,52,0.00,,,-99.99,,2013-07-30 17:12:00,
2013-07-30 13:22:00,71.0,51.0,-100.00,NNW,330,4.0,11.0,49,0.00,,,-99.99,,2013-07-30 17:22:00,
2013-07-30 14:12:00,75.0,51.0,-100.00,NNW,330,4.0,11.0,42,0.00,,,-99.99,,2013-07-30 18:12:00,
2013-07-30 14:23:00,74.0,51.0,-100.00,NW,325,4.0,12.0,44,0.00,,,-99.99,,2013-07-30 18:23:00,
2013-07-30 14:32:00,74.0,52.0,-100.00,NW,310,3.0,12.0,44,0.00,,,-99.99,,2013-07-30 18:32:00,
2013-07-30 14:43:00,75.0,48.0,-100.00,NNW,340,10.0,15.0,37,0.00,,,-99.99,,2013-07-30 18:43:00,
2013-07-30 14:52:00,73.0,49.0,-100.00,NW,315,6.0,9.0,43,0.00,,,-99.99,,2013-07-30 18:52:00,
2013-07-30 15:03:00,74.0,49.0,-100.00,NNW,340,7.0,11.0,40,0.00,,,-99.99,,2013-07-30 19:03:00,
2013-07-30 15:23:00,75.0,48.0,-100.00,NW,320,4.0,11.0,38,0.00,,,-99.99,,2013-07-30 19:23:00,
2013-07-30 15:33:00,75.0,48.0,-100.00,NW,325,4.0,12.0,38,0.00,,,-99.99,,2013-07-30 19:33:00,
2013-07-30 15:44:00,75.0,49.0,-100.00,NNW,330,4.0,12.0,40,0.00,,,-99.99,,2013-07-30 19:44:00,
2013-07-30 16:22:00,74.0,49.0,-100.00,NNW,345,6.0,11.0,41,0.00,,,-99.99,,2013-07-30 20:22:00,
2013-07-30 17:42:00,72.0,51.0,-100.00,NNW,340,7.0,12.0,47,0.00,,,-99.99,,2013-07-30 21:42:00,
2013-07-30 18:02:00,72.0,49.0,-100.00,NW,315,4.0,11.0,44,0.00,,,-99.99,,2013-07-30 22:02:00,
2013-07-30 18:12:00,72.0,49.0,-100.00,NW,320,4.0,10.0,44,0.00,,,-99.99,,2013-07-30 22:12:00,
2013-07-30 18:22:00,72.0,55.0,-100.00,NW,315,3.0,9.0,54,0.00,,,-99.99,,2013-07-30 22:22:00,
2013-07-30 18:32:00,72.0,54.0,-100.00,NW,325,4.0,9.0,53,0.00,,,-99.99,,2013-07-30 22:32:00,
2013-07-30 18:43:00,71.0,56.0,-100.00,WSW,250,1.0,7.0,58,0.00,,,-99.99,,2013-07-30 22:43:00,
2013-07-30 19:42:00,67.0,58.0,-100.00,SW,230,1.0,1.0,71,0.00,,,-99.99,,2013-07-30 23:42:00,
2013-07-30 19:53:00,67.0,57.0,-100.00,SSW,195,0.0,1.0,71,0.00,,,-99.99,,2013-07-30 23:53:00,
2013-07-30 20:02:00,66.0,57.0,-100.00,SW,220,1.0,1.0,71,0.00,,,-99.99,,2013-07-31 00:02:00,
2013-07-30 20:12:00,66.0,57.0,-100.00,NW,310,0.0,1.0,72,0.00,,,-99.99,,2013-07-31 00:12:00,
2013-07-30 20:22:00,66.0,57.0,-100.00,NW,310,0.0,1.0,72,0.00,,,-99.99,,2013-07-31 00:22:00,
2013-07-30 21:32:00,61.0,57.0,-100.00,North,10,0.0,1.0,85,0.00,,,-99.99,,2013-07-31 01:32:00,
2013-07-30 21:43:00,61.0,56.0,-100.00,NNW,340,1.0,4.0,85,0.00,,,-99.99,,2013-07-31 01:43:00,
2013-07-30 22:12:00,61.0,56.0,-100.00,North,350,1.0,2.0,84,0.00,,,-99.99,,2013-07-31 02:12:00,
2013-07-30 22:32:00,61.0,56.0,-100.00,North,0,1.0,2.0,84,0.00,,,-99.99,,2013-07-31 02:32:00,
2013-07-30 22:52:00,60.0,56.0,-100.00,NNW,335,1.0,2.0,85,0.00,,,-99.99,,2013-07-31 02:52:00,
2013-07-30 23:02:00,60.0,56.0,-100.00,NNW,335,1.0,2.0,85,0.00,,,-99.99,,2013-07-31 03:02:00,
2013-07-30 23:22:00,60.0,56.0,-100.00,North,350,1.0,2.0,86,0.00,,,-99.99,,2013-07-31 03:22:00,
2013-07-30 23:32:00,60.0,56.0,-100.00,North,5,1.0,1.0,87,0.00,,,-99.99,,2013-07-31 03:32:00,
2013-07-30 23:42:00,59.0,56.0,-100.00,NNW,330,1.0,2.0,87,0.00,,,-99.99,,2013-07-31 03:42:00,